Probability
0 0 0 0 0 0 0 0 0 0 0 0 0 0 0 0 0 0 0 0 0 0 0 0 0 0 0 0 0 0 0 0 0 0 0 0 0 0 0 0 0 0 0
0 0 0 0 0 0 0 0 0 0 0 0 0 0 0 0 0 0 0 0 0 0 0 0 0 0 0 0 0 0 0 0 0 0 0 0 0 0 0 0 0 0 0
0 0 0 0 0 0 0 0 0 0 0 0 0 0 0 0 0 0 0 0 0 0 0 0 0 0 0 0 0 0 0 0 0 0 0 0 0 0 0 0 0 0 0
0 0 0 0 0 0 0 0 0 0 0 0 0 0 0 0 0 0 0 0 0 0 0 0 0 0 0 0 0 0 0 0 0 0 0 0 0 0 0 0 0 0 0
0 0 0 0 0 0 0 0 0 0 0 0 0 0 0 0 0 0 0 0 0 0 0 0 0 0 0 0 0 0 0 0 0 0 0 0 0 0 0 0 0 0 0
0 0 0 0 0 0 0 0 0 0 0 0 0 0 0 0 0 0 0 0 0 0 0 0 0 0 0 0 0 0 0 0 0 0 0 0 0 0 0 0 0 0 0
0 0 0 0 0 0 0 0 0 0 0 0 0 0 0 0 0 0 0 0 0 0 0 0 0 0 0 0 0 0 0 0 0 0 0 0 0 0 0 0 0 0 0
0 0 0 0 0 0 0 0 0 0 0 0 0 0 0 0 0 0 0 0 0 0 0 0 0 0 0 0 0 0 0 0 0 0 0 0 0 0 0 0 0 0 0
0 0 0 0 0 0 0 0 0 0 0 0 0 0 0 0 0 0 0 0 0 0 0 0 0 0 0 0 0 0 0 0 0 0 0 0 0 0 0 0 0 0 0
0 0 0 0 0 0 0 0 0 0 0 0 0 0 0 0 0 0 0 0 0 0 0 0 0 0 0 0 0 0 0 0 0 0 0 0 0 0 0 0 0 0 0
0 0 0 0 0 0 0 0 0 0 0 0 0 0 0 0 0 0 0 0 0 0 0 0 0 0 0 0 0 0 0 0 0 0 0 0 0 0 0 0 0 0 0
0 0 0 0 0 0 0 0 0 0 0 0 0 0 0 0 0 0 0 0 0 0 0 0 0 0 0 0 0 0 0 0 0 0 0 0 0 0 0 0 0 0 0
0 0 0 0 0 0 0 0 0 0 0 0 0 0 0 0 0 0 0 0 0 0 0 0 0 0 0 0 0 0 0 0 0 0 0 0 0 0 0 0 0 0 0
0 0 0 0 0 0 0 0 0 0 0 0 0 0 0 0 0 0 0 0 0 0 0 0 0 0 0 0 0 0 0 0 0 0 0 0 0 0 0 0 0 0 0
0 0 0 0 0 0 0 0 0 0 0 0 0 0 0 0 0 0 0 0 0 0 0 0 0 0 0 0 0 0 0 0 0 0 0 0 0 0 0 0 0 0 0
0 0 0 0 0 0 0 0 0 0 0 0 0 0 0 0 0 0 0 0 0 0 0 0 0 0 0 0 0 0 0 0 0 0 0 0 0 0 0 0 0 0 0
0 0 0 0 0 0 0 0 0 0 0 0 0 0 0 0 0 0 0 0 0 0 0 0 0 0 0 0 0 0 0 0 0 0 0 0 0 0 0 0 0 0 0
0 0 0 0 0 0 0 0 0 0 0 0 0 0 0 0 0 0 0 0 0 0 0 0 0 0 0 0 0 0 0 0 0 0 0 0 0 0 0 0 0 0 0
0 0 0 0 0 0 0 0 0 0 0 0 0 0 0 0 0 0 0 0 0 0 0 0 0 0 0 0 0 0 0 0 0 0 0 0 0 0 0 0 0 0 0
0 0 0 0 0 0 0 0 0 0 0 0 0 0 0 0 0 0 0 0 0 0 0 0 0 0 0 0 0 0 0 0 0 0 0 0 0 0 0 0 0 0 0
0 0 0 0 0 0 0 0 0 0 0 0 0 0 0 0 0 0 0 0 0 0 0 0 0 0 0 0 0 0 0 0 0 0 0 0 0 0 0 0 0 0 0
0 0 0 0 0 0 0 0 0 0 0 0 0 0 0 0 0 0 0 0 0 0 0 0 0 0 0 0 0 0 0 0 0 0 0 0 0 0 0 0 0 0 0
0 0 0 0 0 0 0 0 0 0 0 0 0 0 0 0 0 0 0 0 0 0 0 0 0 0 0 0 0 0 0 0 0 0 0 0 0 0 0 0 0 0 0
0 0 0 0 0 0 0 0 0 0 0 0 0 0 0 0 0 0 0 0 0 0 0 0 0 0 0 0 0 0 0 0 0 0 0 0 0 0 0 0 0 0 0
0 0 0 0 0 0 0 0 0 0 0 0 0 0 0 0 0 0 0 0 0 0 0 0 0 0 0 0 0 0 0 0 0 0 0 0 0 0 0 0 0 0 0
0 0 0 0 0 0 0 0 0 0 0 0 0 0 0 0 0 0 0 0 0 0 0 0 0 0 0 0 0 0 0 0 0 0 0 0 0 0 0 0 0 0 0
Wind_Speed
3 3 8 11 12 13 13 13 13 14 14 15 16 16 17 17 17 17 17 17 18 19 19 19 19 19 20 20 20 20 19 19 19 19 19 19 19 18 18 17 15 10 18
6 5 9 11 13 13 13 13 13 13 14 15 16 16 16 16 16 16 16 17 17 18 18 18 18 18 18 19 18 18 18 18 18 18 17 15 17 17 17 17 16 11 17
7 6 8 11 13 13 12 12 12 13 14 15 15 16 16 16 16 16 16 16 17 17 17 17 18 18 18 18 17 17 17 17 17 16 14 7 9 16 16 16 16 16 15
8 7 8 11 12 13 12 12 12 13 14 15 15 15 16 16 16 16 15 15 16 17 17 17 17 17 17 17 16 16 16 16 16 14 7 6 6 14 15 15 15 15 15
7 6 8 11 12 13 12 12 12 13 13 14 14 15 15 15 15 15 15 15 15 16 16 16 16 16 16 16 16 15 15 15 15 11 7 6 5 13 14 14 14 14 13
7 6 8 11 12 12 12 13 13 13 13 14 14 14 15 15 15 14 14 14 14 15 15 15 15 15 15 15 14 14 14 14 11 6 6 6 5 11 13 13 12 12 12
7 6 7 11 11 11 12 13 12 13 13 13 13 14 14 14 14 14 13 13 14 14 14 14 14 14 14 13 13 13 12 11 7 6 6 5 6 11 12 11 11 11 10
8 6 6 9 10 10 10 11 11 12 13 13 13 13 13 13 13 13 13 13 13 13 13 13 13 13 12 12 11 10 9 8 6 5 5 5 7 10 10 10 10 9 9
7 6 5 6 7 9 9 10 10 11 11 11 12 12 11 12 12 11 11 11 12 11 11 12 12 12 12 11 10 9 9 8 5 3 4 4 7 9 9 8 8 8 8
6 6 5 5 5 5 6 9 10 10 11 11 11 11 11 10 10 9 8 9 10 10 10 10 11 11 11 11 10 9 7 6 3 3 3 4 7 7 7 7 7 7 7
8 6 6 5 5 5 5 7 8 9 10 10 9 10 8 5 5 5 6 8 9 9 9 9 9 9 9 9 8 7 5 2 2 2 2 5 6 7 7 7 6 7 7
11 9 7 6 6 5 5 4 4 4 5 5 4 5 4 4 4 4 6 7 7 7 7 7 8 7 6 3 4 5 2 2 2 2 3 8 8 8 8 8 8 9 9
11 10 9 7 6 6 5 4 3 2 3 4 4 4 4 3 3 3 2 3 3 4 3 4 4 3 3 2 2 2 2 2 2 2 4 8 9 10 11 11 11 11 11
10 11 10 8 7 6 5 4 4 3 3 3 3 4 4 3 2 2 1 2 1 1 2 2 2 2 3 3 2 2 3 2 2 2 4 8 10 11 13 13 14 14 14
11 11 11 10 9 7 6 4 4 4 4 4 3 4 4 3 3 2 2 1 1 1 1 1 1 2 2 2 2 3 3 4 4 4 3 8 10 12 13 14 15 15 15
11 11 10 11 10 8 7 6 5 4 4 4 4 4 5 3 3 3 2 2 1 1 1 0 1 1 2 2 3 3 4 4 4 4 4 5 9 11 12 13 14 15 16
10 10 10 11 10 9 8 7 5 5 4 4 4 5 5 4 4 3 3 2 2 2 1 0 1 1 2 2 3 4 4 4 5 5 5 3 4 7 10 12 13 14 15
9 10 10 9 10 10 8 7 5 5 5 4 4 4 5 5 5 4 3 3 2 2 1 1 1 1 2 2 3 4 4 4 5 5 4 3 3 3 6 10 12 13 15
11 11 11 10 11 10 9 6 6 5 5 5 4 4 5 6 6 4 4 3 3 2 2 1 1 1 2 3 3 4 4 4 4 4 4 4 3 3 3 7 10 12 14
10 10 11 11 11 9 7 5 4 4 4 4 5 5 6 5 6 5 4 4 4 3 2 2 2 2 2 2 3 4 4 4 3 3 3 3 3 3 4 4 5 6 12
10 11 12 12 11 9 6 6 6 6 5 4 5 6 7 6 7 6 4 4 4 4 4 3 2 2 1 1 2 4 4 3 2 2 2 2 3 4 4 4 4 4 5
13 14 13 13 12 11 9 7 4 4 4 4 5 6 7 7 7 6 6 5 5 4 4 3 3 2 1 1 0 2 4 5 3 2 2 2 3 3 4 4 4 5 4
15 16 14 15 14 13 10 6 4 3 3 4 5 5 6 7 7 7 7 5 5 4 4 4 4 4 2 1 1 1 1 3 4 3 2 2 3 3 4 4 5 5 5
17 14 14 14 14 13 12 10 10 9 8 7 5 5 6 7 7 7 6 6 5 4 4 4 4 3 3 2 1 2 2 1 2 4 4 2 3 4 4 4 4 5 5
13 13 13 13 13 13 13 14 13 10 7 5 5 6 6 5 5 6 6 5 5 4 4 4 4 4 3 2 2 1 1 1 2 2 5 4 3 3 3 3 3 4 5
9 10 10 12 13 13 15 14 14 13 10 8 7 6 5 3 3 4 5 4 4 4 4 4 4 4 3 2 2 1 1 1 1 2 4 4 4 3 3 2 2 4 5
Wind_Direction
161 167 136 124 118 111 107 101 98 95 94 94 92 91 89 87 86 84 84 84 83 82 81 79 78 78 77 74 72 70 68 66 64 63 63 65 65 65 64 63 59 52 59
146 149 132 124 118 113 111 107 103 100 98 96 95 93 91 91 88 86 86 86 85 84 82 80 80 79 79 76 74 72 71 69 66 63 60 59 63 64 62 60 60 60 60
132 133 127 123 121 118 116 114 108 104 102 99 97 96 94 93 91 89 88 88 87 86 84 82 81 81 80 78 75 74 72 70 67 62 54 37 54 64 63 60 58 58 58
130 126 127 126 127 125 121 117 113 109 106 103 102 101 97 95 94 92 91 89 89 88 85 83 81 82 81 80 77 75 73 71 66 58 41 29 41 63 61 59 57 54 54
121 122 130 130 131 130 126 121 117 114 110 108 105 104 100 98 96 95 93 90 89 88 86 84 82 81 81 82 80 77 75 70 61 49 33 28 33 62 61 59 57 53 50
122 125 135 133 134 133 130 126 122 119 114 111 107 106 103 101 98 96 94 92 90 88 87 85 83 81 82 82 81 79 77 70 55 39 30 23 29 60 60 57 55 52 49
128 127 134 134 134 134 134 131 126 121 116 113 110 109 108 106 103 100 98 96 92 90 88 87 85 83 82 83 83 81 78 72 60 43 29 16 39 57 55 53 50 47 44
132 124 126 131 132 131 131 131 126 122 118 116 115 114 113 110 107 105 103 100 96 93 91 90 88 85 83 84 85 83 75 66 57 41 28 14 39 51 49 46 42 39 35
124 120 118 122 125 126 125 124 122 120 119 116 113 110 108 107 105 103 104 104 101 98 94 91 88 84 82 81 81 80 75 67 53 29 19 5 24 39 40 35 30 25 21
131 129 127 120 117 116 117 121 120 117 115 111 106 101 100 100 97 93 95 103 103 100 96 91 86 81 76 75 75 73 68 56 39 22 3 347 7 20 23 19 12 5 360
155 151 143 133 126 123 121 124 120 115 116 112 110 109 100 92 88 86 95 100 103 101 97 91 83 76 68 62 63 65 57 39 21 359 339 332 347 353 356 353 346 339 332
173 170 163 153 145 136 129 120 114 110 115 113 115 112 104 101 95 94 95 98 97 92 88 82 72 63 60 47 43 49 37 19 8 335 319 325 329 331 332 330 326 320 315
177 176 175 167 157 149 141 139 127 119 120 122 127 124 116 104 96 89 85 82 81 76 63 58 53 43 41 34 25 17 6 358 332 314 308 314 317 317 319 318 316 314 311
178 183 180 173 166 162 156 156 149 146 146 148 151 145 134 128 127 126 118 113 95 77 73 53 37 22 18 12 5 350 339 326 307 297 294 303 309 310 312 314 315 315 315
183 185 184 179 177 172 167 169 168 168 168 165 162 164 158 154 160 157 154 149 140 111 98 50 13 360 353 344 334 326 315 307 299 293 294 301 306 309 312 315 317 319 319
187 186 184 185 183 177 179 180 179 177 172 170 176 179 174 167 168 170 175 179 186 180 178 192 298 325 319 318 314 312 302 298 293 295 293 301 308 313 316 319 322 324 325
188 184 186 188 185 185 188 188 182 181 175 180 184 183 183 180 178 176 181 194 201 190 188 197 294 315 307 309 307 306 298 293 295 296 298 298 307 316 322 328 331 332 332
183 183 187 187 188 191 191 190 186 183 183 188 183 183 190 189 183 178 186 201 190 176 178 198 243 298 298 305 304 302 296 295 296 298 302 307 313 316 327 337 340 339 339
187 186 186 187 189 193 192 190 189 185 191 191 184 187 193 191 185 181 193 196 180 177 190 200 214 230 287 302 300 296 293 293 296 305 313 322 328 331 333 340 344 342 342
190 189 190 191 192 188 184 180 183 193 199 193 192 195 190 190 186 184 192 193 178 181 198 202 218 218 254 287 298 295 292 295 302 310 317 329 339 347 346 340 340 340 344
193 194 194 194 193 184 181 186 191 202 199 198 200 196 193 190 186 186 190 190 185 196 205 196 191 220 258 279 320 318 315 319 333 326 336 346 352 352 347 342 339 338 339
201 201 200 199 195 192 194 187 180 174 187 193 192 195 194 191 191 193 195 195 192 197 201 192 178 178 223 175 101 341 335 339 338 338 350 358 351 349 346 344 344 343 341
207 205 203 202 198 196 189 172 155 153 155 177 192 197 198 194 194 193 197 193 190 189 200 197 187 184 204 196 173 168 325 309 314 319 334 346 349 348 338 340 347 350 351
211 205 204 201 199 194 187 185 184 193 201 198 186 187 190 194 195 194 193 190 190 189 197 195 186 183 180 199 191 207 218 221 282 310 316 329 345 337 333 343 349 352 358
207 202 202 199 199 194 192 194 196 204 204 181 170 179 186 185 189 189 186 182 182 182 187 177 171 174 179 185 181 180 205 220 219 258 292 311 326 314 325 332 346 356 3
202 198 195 196 200 196 195 197 199 201 192 178 178 180 179 175 180 181 175 174 172 171 172 167 163 159 160 159 155 151 162 186 210 245 277 301 310 307 320 338 7 11 13